SB KEPS @ AMSAT $ORB08290.N 2Line Orbital Elements 08290.AMSAT
HR AMSAT ORBITAL ELEMENTS FOR AMATEUR SATELLITES IN NASA FORMAT FROM WA5QGD FORT WORTH,TX October 16, 2008 Send Subscribe/unsubscribe to KEPS at http://www.amsat.org/mailman/listinfo/keps BID: ORB08290.N
DECODE 2-LINE ELSETS WITH THE FOLLOWING KEY: 1 AAAAAU 00 0 0 BBBBB.BBBBBBBB .CCCCCCCC 00000-0 00000-0 0 DDDZ 2 AAAAA EEE.EEEE FFF.FFFF GGGGGGG HHH.HHHH III.IIII JJ.JJJJJJJJKKKKKZ KEY: A-CATALOGNUM B-EPOCHTIME C-DECAY D-ELSETNUM E-INCLINATION F-RAAN G-ECCENTRICITY H-ARGPERIGEE I-MNANOM J-MNMOTION K-ORBITNUM Z-CHECKSUM
TO ALL RADIO AMATEURS BT
AO-07 1 07530U 74089B 08289.64175131 -.00000027 00000-0 10000-3 0 03042 2 07530 101.4565 317.0655 0011965 027.9906 332.1803 12.53574328552070 AO-10 1 14129U 83058B 08288.62994557 -.00000073 00000-0 10000-3 0 05759 2 14129 026.0324 190.8569 5960966 165.1097 225.7390 02.05868818190569 UO-11 1 14781U 84021B 08289.69171038 .00000303 00000-0 47593-4 0 7882 2 14781 098.1431 325.4554 0009904 049.4580 310.7467 14.79670479321670 RS-15 1 23439U 94085A 08289.98924220 -.00000039 00000-0 10000-3 0 02215 2 23439 064.8180 299.7079 0145864 099.4685 262.2759 11.27552397568589 FO-29 1 24278U 96046B 08289.73753739 -.00000044 00000-0 -59773-5 0 08871 2 24278 098.5762 190.1992 0349753 263.4948 092.6266 13.52939451600694 SO-33 1 25509U 98061B 08290.53369387 .00000081 00000-0 50926-5 0 3033 2 25509 031.4344 350.2118 0354409 008.1174 352.4993 14.28227952520978 AO-40 1 26609U 00072B 08289.79980320 -.00000298 00000-0 10000-3 0 1353 2 26609 007.9293 054.8179 7938082 134.1027 327.8138 01.25585604 36551 VO-52 1 28650U 05017B 08289.76420943 .00000452 00000-0 63915-4 0 00581 2 28650 097.7773 352.9830 0028188 106.7629 253.6671 14.81510003186458 PO-63 1 29712U 07001D 08290.35944215 .00000656 00000-0 92843-4 0 8852 2 29712 097.8629 346.1960 0014229 352.7678 007.3326 14.80297572 95391 AO-16 1 20439U 90005D 08289.47834660 .00000011 00000-0 19549-4 0 04435 2 20439 098.2459 263.4828 0010744 173.9871 186.1441 14.31805219978139 LO-19 1 20442U 90005G 08289.85508807 .00000012 00000-0 19747-4 0 3645 2 20442 098.2132 271.9982 0011890 170.7349 189.4061 14.32042946978342 AO-27 1 22825U 93061C 08289.82305243 .00000057 00000-0 39087-4 0 840 2 22825 098.3998 245.4109 0007513 265.3223 094.7098 14.29249349785005 IO-26 1 22826U 93061D 08289.92607862 -.00000004 00000-0 14852-4 0 08006 2 22826 098.3930 246.3665 0008055 262.1807 097.8461 14.29498748785113 GO-32 1 25397U 98043D 08289.61664642 .00000097 00000-0 61251-4 0 07243 2 25397 098.3535 318.7681 0000459 218.7183 141.3966 14.23149947533345 NO-44 1 26931U 01043C 08290.46315358 .00000049 00000-0 51457-4 0 27 2 26931 067.0543 332.2343 0007117 259.4199 100.6078 14.29536224367740 SO-50 1 27607U 02058C 08289.78429532 .00000049 00000-0 29581-4 0 7231 2 27607 064.5595 047.3756 0085260 256.1333 103.0264 14.71386458312711 CO-55 1 27844U 03031E 08289.52481671 .00000044 00000-0 40952-4 0 04181 2 27844 098.7180 296.1345 0010462 125.3621 234.8531 14.20600843274527 CO-57 1 27848U 03031J 08289.53913053 .00000053 00000-0 45312-4 0 03702 2 27848 098.7188 295.2252 0010165 129.2366 230.9716 14.20408616274497 AO-51 1 28375U 04025K 08289.55392695 .00000001 00000-0 12839-4 0 02235 2 28375 098.0654 307.3246 0083887 146.9053 213.7429 14.40620636225735 CO-56 1 28941U 06005C 08290.51905477 .00029633 28188-5 19438-3 0 4675 2 28941 098.1183 058.4357 0145905 318.5398 040.4882 15.62829672148950 CP3 1 31128U 07012M 08289.65679084 -.00000048 00000-0 00000-0 0 04591 2 31128 098.0250 347.9182 0102329 322.9554 036.4640 14.51981319079418 CP4 1 31132U 07012Q 08290.59563720 .00000196 00000-0 53810-4 0 4370 2 31132 098.0311 351.5767 0084755 311.9684 047.4313 14.55149385 79608 CO-65 1 32785U 08021C 08289.35051874 .00000424 00000-0 60988-4 0 01858 2 32785 097.9809 348.8932 0015992 104.0327 256.2667 14.81402786025191 NOAA-10 1 16969U 86073A 08290.49576999 .00000054 00000-0 40058-4 0 3301 2 16969 098.7158 312.1892 0012197 184.0470 176.0626 14.27370722148748 NOAA-11 1 19531U 88089A 08290.23544793 .00000212 00000-0 13212-3 0 3618 2 19531 098.7965 017.8550 0012305 083.5112 276.7485 14.14880282 35029 NOAA-12 1 21263U 91032A 08290.55769588 .00000061 00000-0 44438-4 0 8747 2 21263 098.7723 292.5314 0013017 129.8248 230.4077 14.25550073905687 MET-3/5 1 21655U 91056A 08289.90839406 .00000051 00000-0 10000-3 0 05183 2 21655 082.5573 019.0842 0014857 072.0933 288.1811 13.17016853825474 MET-2/21 1 22782U 93055A 08289.82961231 .00000011 00000-0 -29998-5 0 02776 2 22782 082.5528 015.8626 0021442 315.0706 044.8711 13.83633083763814 OKEAN-4 1 23317U 94066A 08289.72797166 .00000163 00000-0 17117-4 0 07239 2 23317 082.5413 202.5892 0024038 089.2130 271.1863 14.82641817756142 NOAA-14 1 23455U 94089A 08290.49965893 -.00000173 00000-0 -67986-4 0 3516 2 23455 098.9366 002.7453 0009881 156.6236 203.5415 14.13748574711494 NOAA-15 1 25338U 98030A 08290.22188666 .00000162 00000-0 87813-4 0 6626 2 25338 098.5650 279.0687 0011414 052.4133 307.8087 14.24729145542030 RESURS 1 25394U 98043A 08289.95023576 -.00000021 00000-0 88790-5 0 00689 2 25394 098.3747 328.3294 0001011 166.8524 193.2682 14.24172626533635 FENGYUN1 1 25730U 99025A 08290.73751490 .00000242 00000-0 16755-3 0 5921 2 25730 098.7339 262.4693 0019877 180.5819 179.5332 14.07810750486061 OKEAN-0 1 25860U 99039A 08289.58070042 .00000056 00000-0 15907-4 0 4996 2 25860 097.7622 274.8765 0000506 072.3950 287.7311 14.73539839497126 NOAA-16 1 26536U 00055A 08290.19488018 -.00000040 00000-0 36307-5 0 1373 2 26536 099.1667 282.0888 0009804 244.8078 115.2108 14.12498415415852 NOAA-17 1 27453U 02032A 08290.47011764 .00000135 00000-0 77196-4 0 1374 2 27453 098.5216 351.5033 0012752 114.1461 246.1046 14.24010116328061 NOAA-18 1 28654U 05018A 08290.50766636 -.00000100 00000-0 -30669-4 0 6254 2 28654 098.8783 229.9950 0014133 334.9094 025.1383 14.11200298175586 HUBBLE 1 20580U 90037B 08289.94102288 .00000409 00000-0 18786-4 0 02478 2 20580 028.4703 255.6187 0003864 221.5556 138.4741 15.00417068813138 PO-34 1 25520U 98064B 08290.75568723 .00000561 00000-0 17751-4 0 1015 2 25520 028.4580 084.8565 0005861 170.2123 189.8587 15.17242923551648 ISS 1 25544U 98067A 08290.50497133 .00014617 00000-0 11241-3 0 4526 2 25544 051.6419 114.3833 0003459 227.5088 172.1737 15.72293287567624 CO-58 1 28895U 05043F 08290.65688693 .00000086 00000-0 27578-4 0 1454 2 28895 098.0829 181.6967 0018652 032.5673 327.6667 14.59704628158205 FALCON 1 30776U 07006E 08289.93839820 .00000470 00000-0 37254-4 0 04413 2 30776 035.4331 141.1217 0001988 314.1552 045.9001 15.03074367088324 MAST 1 31126U 07012K 08290.54265192 .00000127 00000-0 39577-4 0 4389 2 31126 098.0256 350.0398 0094112 316.3384 043.0574 14.53451028 79640 CAPE1 1 31130U 07012P 08289.85696937 .00000049 00000-0 22419-4 0 4303 2 31130 098.0277 348.1184 0101861 322.3831 037.0228 14.51997581 79234 COMPASS 1 32787U 08021E 08290.69455113 .00000455 00000-0 64758-4 0 1755 2 32787 097.9759 350.1544 0017020 102.3344 257.9764 14.81477730 25395 AAUSAT2 1 32788U 08021F 08289.60130194 .00000313 00000-0 46642-4 0 01748 2 32788 097.9771 349.0887 0016692 106.2494 254.0566 14.81588242025232 DO-64 1 32789U 08021G 08289.88453168 .00000687 00000-0 94231-4 0 01907 2 32789 097.9789 349.4129 0016907 104.4827 255.8248 14.81498848025276 CO-66 1 32791U 08021J 08289.22500796 .00000433 00000-0 62233-4 0 01702 2 32791 097.9792 348.7132 0017345 104.0749 256.2386 14.81327896025143 RS-30 1 32953U 08025A 08289.74233627 .00000010 00000-0 00000 0 0 1338 2 32953 082.5017 048.6095 0018746 355.1151 004.9746 12.42997940 18024 /EX